AC 10 PROBE (GOLF) (46928 NORAD) Tracking and Keplerian Element Data

This shows tracking and keplerian element data for the satellite.

Feedback or suggestion? Click here.




ElementValue
Catalog46928
NameAC 10 PROBE (GOLF)
Epoch Orbit1149
Epoch Day32.33895523
Epoch Year2021
RAAN5.7653
Inclination51.6225
Eccentricity0.0002107
Argument of Perigee69.2131
Mean Anonmoly85.0391
Mean Motion15.64407191
Decay Rate-5.49E-06
L11 46928U 19022N 21032.33895523 -.00000549 00000-0 00000+0 0 9997
L22 46928 51.6225 5.7653 0002107 69.2131 85.0391 15.64407191 11499

Live tracking and technical data element details for AC 10 PROBE (GOLF) (NORAD 46928). AC 10 PROBE (GOLF) can be tracked NOW for your location showing map with azimuth and elevation plus other details from your city location.

Track the satellite on the map from your city or location and see movement details for azimuth, elevation, latitude, longitude, range, height, and movement on the map or in text.







IsCatalogInMostPopularTable: catalog: 46928, numindb: 22
Update: records affected: 1



GetName: 46928 AC 10 PROBE (GOLF)

Hit Count: updated at: Tue, 02 Mar 2021 14:18:08 GMT